| time (UTC) | temp F | wind direction | speed MPH | gust MPH | rain 1hr in | rain 24hr in | rain mn in | humidity % | barometer mb |
| 20260504034531 | 44 | 194 | 11.0 | 15.0 | 0.00 | 0.00 | 0.00 | 72 | 1015.5 |
| 20260504033528 | 43 | 196 | 12.0 | 17.0 | 0.00 | 0.00 | 0.00 | 75 | 1015.4 |
| 20260504032525 | 42 | 192 | 13.0 | 16.0 | 0.00 | 0.00 | 0.00 | 77 | 1015.3 |
| 20260504031522 | 41 | 189 | 11.0 | 15.0 | 0.00 | 0.00 | 0.00 | 82 | 1015.3 |
| 20260504030520 | 41 | 184 | 11.0 | 15.0 | 0.00 | 0.00 | 0.00 | 84 | 1015.3 |
| 20260504025517 | 41 | 183 | 11.0 | 15.0 | 0.00 | 0.00 | 0.00 | 84 | 1015.1 |
| 20260504024554 | 41 | 183 | 13.0 | 16.0 | 0.00 | 0.00 | 0.00 | 83 | 1015.2 |
| 20260504023553 | 42 | 184 | 12.0 | 15.0 | 0.00 | 0.00 | 0.00 | 78 | 1015.2 |
| 20260504022528 | 42 | 196 | 9.0 | 14.0 | 0.00 | 0.00 | 0.00 | 76 | 1015.2 |
| 20260504021525 | 42 | 198 | 11.0 | 14.0 | 0.00 | 0.00 | 0.00 | 76 | 1015.2 |
| 20260504020522 | 42 | 195 | 12.0 | 18.0 | 0.00 | 0.00 | 0.00 | 76 | 1015.3 |
| 20260504015519 | 42 | 194 | 11.0 | 17.0 | 0.00 | 0.00 | 0.00 | 77 | 1015.2 |
| 20260504014516 | 42 | 205 | 10.0 | 15.0 | 0.00 | 0.00 | 0.00 | 77 | 1015.3 |
| 20260504013613 | 41 | 193 | 10.0 | 14.0 | 0.00 | 0.00 | 0.00 | 81 | 1015.5 |
| 20260504012530 | 40 | 190 | 12.0 | 15.0 | 0.00 | 0.00 | 0.00 | 84 | 1015.6 |
| 20260504011527 | 40 | 192 | 12.0 | 15.0 | 0.00 | 0.00 | 0.00 | 85 | 1015.7 |
| 20260504010524 | 40 | 190 | 11.0 | 15.0 | 0.00 | 0.00 | 0.00 | 85 | 1015.8 |
| 20260504005521 | 39 | 190 | 13.0 | 16.0 | 0.00 | 0.00 | 0.00 | 87 | 1015.7 |
| 20260504004518 | 39 | 186 | 12.0 | 14.0 | 0.00 | 0.00 | 0.00 | 87 | 1015.9 |
| 20260504003535 | 39 | 187 | 12.0 | 14.0 | 0.00 | 0.00 | 0.00 | 86 | 1016.0 |
| 20260504002532 | 40 | 185 | 11.0 | 14.0 | 0.00 | 0.00 | 0.00 | 85 | 1016.1 |
| 20260504001529 | 40 | 191 | 11.0 | 13.0 | 0.00 | 0.00 | 0.00 | 84 | 1016.2 |
| 20260504000526 | 40 | 187 | 12.0 | 14.0 | 0.00 | 0.00 | 0.00 | 83 | 1016.1 |
| 20260503235523 | 40 | 191 | 12.0 | 13.0 | 0.00 | 0.00 | 0.00 | 82 | 1016.2 |
| 20260503234520 | 41 | 186 | 10.0 | 14.0 | 0.00 | 0.00 | 0.00 | 81 | 1016.3 |
| 20260503233517 | 42 | 188 | 10.0 | 13.0 | 0.00 | 0.00 | 0.00 | 80 | 1016.3 |
| 20260503232535 | 44 | 190 | 11.0 | 13.0 | 0.00 | 0.00 | 0.00 | 75 | 1016.4 |
| 20260503231531 | 44 | 196 | 11.0 | 13.0 | 0.00 | 0.00 | 0.00 | 72 | 1016.5 |
| 20260503230528 | 45 | 190 | 11.0 | 13.0 | 0.00 | 0.00 | 0.00 | 70 | 1016.5 |
| 20260503225525 | 46 | 188 | 10.0 | 12.0 | 0.00 | 0.00 | 0.00 | 67 | 1016.6 |
| 20260503224542 | 46 | 194 | 9.0 | 11.0 | 0.00 | 0.00 | 0.00 | 66 | 1016.5 |
| 20260503223519 | 47 | 201 | 10.0 | 12.0 | 0.00 | 0.00 | 0.00 | 65 | 1016.4 |
| 20260503222517 | 47 | 193 | 9.0 | 11.0 | 0.00 | 0.00 | 0.00 | 65 | 1016.4 |
| 20260503221534 | 47 | 196 | 8.0 | 12.0 | 0.00 | 0.00 | 0.00 | 64 | 1016.5 |
| 20260503220551 | 47 | 204 | 9.0 | 12.0 | 0.00 | 0.00 | 0.00 | 65 | 1016.5 |
| 20260503215528 | 47 | 197 | 8.0 | 11.0 | 0.00 | 0.00 | 0.00 | 65 | 1016.6 |
| 20260503214605 | 47 | 194 | 8.0 | 11.0 | 0.00 | 0.00 | 0.00 | 67 | 1016.7 |
| 20260503213521 | 46 | 190 | 7.0 | 10.0 | 0.00 | 0.00 | 0.00 | 68 | 1016.8 |
| 20260503212518 | 47 | 193 | 8.0 | 12.0 | 0.00 | 0.00 | 0.00 | 68 | 1016.7 |
| 20260503211516 | 46 | 190 | 8.0 | 11.0 | 0.00 | 0.00 | 0.00 | 69 | 1016.7 |
| 20260503210553 | 46 | 203 | 9.0 | 13.0 | 0.00 | 0.00 | 0.00 | 71 | 1016.6 |
| 20260503205530 | 45 | 210 | 10.0 | 13.0 | 0.00 | 0.00 | 0.00 | 71 | 1016.7 |
| 20260503204527 | 46 | 208 | 10.0 | 13.0 | 0.00 | 0.00 | 0.00 | 70 | 1016.6 |
| 20260503203523 | 47 | 201 | 9.0 | 15.0 | 0.00 | 0.00 | 0.00 | 66 | 1016.7 |
| 20260503202541 | 47 | 195 | 9.0 | 12.0 | 0.00 | 0.00 | 0.00 | 66 | 1016.9 |
| 20260503201517 | 47 | 201 | 9.0 | 13.0 | 0.00 | 0.00 | 0.00 | 66 | 1016.8 |
| 20260503200535 | 48 | 189 | 8.0 | 11.0 | 0.00 | 0.00 | 0.00 | 67 | 1016.9 |
| 20260503195532 | 48 | 189 | 8.0 | 11.0 | 0.00 | 0.00 | 0.00 | 67 | 1017.0 |
| 20260503194529 | 48 | 197 | 9.0 | 13.0 | 0.00 | 0.00 | 0.00 | 65 | 1017.0 |
| 20260503193526 | 49 | 196 | 8.0 | 10.0 | 0.00 | 0.00 | 0.00 | 63 | 1017.0 |
| 20260503192523 | 49 | 195 | 7.0 | 10.0 | 0.00 | 0.00 | 0.00 | 64 | 1017.0 |
| 20260503191520 | 49 | 194 | 7.0 | 10.0 | 0.00 | 0.01 | 0.00 | 64 | 1017.1 |
| 20260503190517 | 49 | 193 | 7.0 | 10.0 | 0.00 | 0.01 | 0.00 | 64 | 1017.5 |
| 20260503185534 | 50 | 183 | 7.0 | 10.0 | 0.00 | 0.01 | 0.00 | 63 | 1017.4 |
| 20260503184531 | 50 | 184 | 6.0 | 10.0 | 0.00 | 0.01 | 0.00 | 61 | 1017.6 |
| 20260503183528 | 51 | 180 | 7.0 | 9.0 | 0.00 | 0.01 | 0.00 | 58 | 1017.6 |
| 20260503182525 | 51 | 181 | 7.0 | 10.0 | 0.00 | 0.01 | 0.00 | 57 | 1017.8 |
| 20260503181522 | 51 | 178 | 7.0 | 9.0 | 0.00 | 0.01 | 0.00 | 56 | 1017.8 |
| 20260503180519 | 51 | 165 | 7.0 | 13.0 | 0.00 | 0.01 | 0.00 | 55 | 1017.8 |
| 20260503175536 | 51 | 171 | 8.0 | 12.0 | 0.00 | 0.01 | 0.00 | 54 | 1017.8 |
| 20260503174534 | 52 | 162 | 8.0 | 11.0 | 0.00 | 0.01 | 0.00 | 54 | 1017.7 |
| 20260503173536 | 52 | 166 | 7.0 | 12.0 | 0.00 | 0.01 | 0.00 | 55 | 1017.7 |
| 20260503172533 | 52 | 160 | 8.0 | 13.0 | 0.00 | 0.01 | 0.00 | 54 | 1017.6 |
| 20260503171529 | 52 | 147 | 8.0 | 13.0 | 0.00 | 0.01 | 0.00 | 54 | 1017.7 |
| 20260503170526 | 52 | 138 | 9.0 | 15.0 | 0.00 | 0.01 | 0.00 | 56 | 1017.7 |
| 20260503150530 | 54 | 116 | 10.0 | 23.0 | 0.00 | 0.01 | 0.00 | 58 | 1017.5 |
| 20260503130535 | 54 | 116 | 13.0 | 25.0 | 0.00 | 0.01 | 0.00 | 67 | 1018.1 |
| 20260503110517 | 54 | 103 | 11.0 | 27.0 | 0.00 | 0.01 | 0.00 | 62 | 1018.3 |
| 20260503081526 | 49 | 178 | 5.0 | 8.0 | 0.00 | 0.01 | 0.00 | 76 | 1019.4 |
| 20260503080523 | 48 | 151 | 4.0 | 9.0 | 0.00 | 0.01 | 0.00 | 77 | 1019.4 |
| 20260503072530 | 48 | 37 | 6.0 | 16.0 | 0.00 | 0.01 | 0.00 | 75 | 1019.2 |
| 20260503071528 | 49 | 191 | 5.0 | 15.0 | 0.00 | 0.01 | 0.00 | 74 | 1019.1 |
| 20260503070525 | 49 | 176 | 4.0 | 9.0 | 0.00 | 0.01 | 0.00 | 73 | 1019.1 |
| 20260503054521 | 48 | 189 | 5.0 | 11.0 | 0.00 | 0.01 | 0.00 | 73 | 1018.8 |
| 20260503053538 | 47 | 258 | 4.0 | 8.0 | 0.00 | 0.01 | 0.00 | 74 | 1018.7 |
| 20260503052536 | 47 | 209 | 5.0 | 11.0 | 0.00 | 0.01 | 0.00 | 74 | 1018.7 |
| 20260503051533 | 46 | 197 | 4.0 | 10.0 | 0.00 | 0.01 | 0.00 | 77 | 1018.7 |
| 20260503050530 | 45 | 219 | 6.0 | 11.0 | 0.00 | 0.01 | 0.00 | 80 | 1018.7 |
| 20260503045527 | 45 | 198 | 6.0 | 12.0 | 0.00 | 0.01 | 0.00 | 80 | 1018.7 |
| 20260503044524 | 45 | 192 | 4.0 | 10.0 | 0.00 | 0.01 | 0.00 | 80 | 1018.6 |
| 20260503043521 | 44 | 219 | 4.0 | 13.0 | 0.00 | 0.01 | 0.00 | 81 | 1018.7 |
| 20260503042518 | 44 | 209 | 5.0 | 9.0 | 0.00 | 0.01 | 0.00 | 81 | 1018.7 |
| 20260503041535 | 44 | 186 | 4.0 | 9.0 | 0.00 | 0.01 | 0.00 | 82 | 1018.7 |
| 20260503040532 | 44 | 216 | 5.0 | 12.0 | 0.00 | 0.01 | 0.00 | 82 | 1018.6 |
| 20260503035529 | 43 | 208 | 5.0 | 11.0 | 0.00 | 0.01 | 0.00 | 83 | 1018.6 |